Terminal Aerodrome Forecast
Issued by NWS

Home | Current Version | Previous Version | Graphics & Text | Print | Product List | Glossary On
Versions: 1 2 3 4 5 6 7 8 9 10 11 12 13 14 15 16 17 18 19
000
FTUS42 KMHX 261936 AAA
TAFOAJ
TAF AMD
KOAJ 261936Z 2620/2718 21011G21KT P6SM SCT030 BKN050
     FM270000 18008KT P6SM OVC100
     FM270700 20008KT 5SM -RA BR OVC008
      AMD LTD TO CLD VIS AND WIND=

USA.gov is the U.S. government's official web portal to all federal, state and local government web resources and services.